This is the latest recevied weather packets stored in our database for station/object N7AWM. If no packets are shown the sender has not sent any weather packets the latest 10 day(s).
| Time | Temp. | Humidity | Pressure | Rain* | Wind** | Luminosity | Snow |
|---|---|---|---|---|---|---|---|
| 1777691867 | 17.22° C | 47% | 1010.4 hPa | 0 mm | - | - | - |
| 1777691027 | 17.78° C | 47% | 1010.3 hPa | 0 mm | - | - | - |
| 1777690187 | 17.78° C | 49% | 1010.3 hPa | 0 mm | - | - | - |
| 1777689347 | 18.89° C | 52% | 1010.2 hPa | 0 mm | - | - | - |
| 1777688507 | 19.44° C | 52% | 1010.1 hPa | 0 mm | - | - | - |
| 1777687668 | 20.56° C | 50% | 1010.2 hPa | 0 mm | - | - | - |
| 1777686828 | 21.67° C | 50% | 1010.2 hPa | 0 mm | - | - | - |
| 1777685988 | 22.22° C | 46% | 1010.2 hPa | 0 mm | - | - | - |
| 1777685148 | 22.22° C | 44% | 1010.2 hPa | 0 mm | - | - | - |
| 1777684308 | 22.22° C | 41% | 1010.4 hPa | 0 mm | - | - | - |
| 1777683468 | 22.22° C | 35% | 1010.5 hPa | 0 mm | - | - | - |
| 1777682628 | 22.78° C | 35% | 1010.7 hPa | 0 mm | - | - | - |
| 1777681788 | 22.78° C | 33% | 1010.9 hPa | 0 mm | - | - | - |
| 1777680948 | 22.78° C | 33% | 1011 hPa | 0 mm | - | - | - |
| 1777680108 | 22.22° C | 35% | 1011 hPa | 0 mm | - | - | - |
| 1777679268 | 22.22° C | 33% | 1011.1 hPa | 0 mm | - | - | - |
| 1777678428 | 22.22° C | 35% | 1011.3 hPa | 0 mm | - | - | - |
| 1777677588 | 22.22° C | 34% | 1011.5 hPa | 0 mm | - | - | - |
| 1777676748 | 22.22° C | 33% | 1011.7 hPa | 0 mm | - | - | - |
| 1777675909 | 22.22° C | 34% | 1011.9 hPa | 0 mm | - | - | - |
| 1777675068 | 22.22° C | 34% | 1012 hPa | 0 mm | - | - | - |
| 1777674230 | 22.22° C | 33% | 1012.1 hPa | 0 mm | - | - | - |
| 1777673389 | 21.67° C | 35% | 1012.4 hPa | 0 mm | - | - | - |
| 1777672549 | 22.22° C | 33% | 1012.5 hPa | 0 mm | - | - | - |
| 1777671709 | 21.67° C | 34% | 1012.6 hPa | 0 mm | - | - | - |
* Rain latest hour (hover to see other rain measurements)
** Current wind speed in m/s (hover to see current wind gust speed)